Precipitable_Water
0.53 0.49 0.43 0.36 0.33 0.32 0.31 0.28 0.25 0.23 0.23 0.25 0.27 0.29 0.30 0.30 0.31 0.32 0.33 0.34 0.35 0.36 0.38 0.40 0.41 0.42 0.43
0.46 0.40 0.34 0.32 0.30 0.29 0.27 0.25 0.23 0.21 0.23 0.26 0.27 0.27 0.28 0.29 0.31 0.31 0.32 0.33 0.34 0.34 0.35 0.36 0.37 0.37 0.37
0.36 0.34 0.31 0.29 0.28 0.26 0.24 0.22 0.21 0.22 0.23 0.24 0.25 0.27 0.29 0.30 0.30 0.30 0.30 0.30 0.30 0.31 0.31 0.32 0.32 0.33 0.34
0.30 0.27 0.27 0.26 0.25 0.22 0.19 0.20 0.19 0.22 0.23 0.25 0.26 0.26 0.27 0.27 0.28 0.28 0.29 0.30 0.31 0.31 0.32 0.32 0.32 0.32 0.33
0.25 0.25 0.23 0.22 0.20 0.20 0.18 0.19 0.21 0.23 0.22 0.23 0.24 0.24 0.25 0.27 0.28 0.28 0.29 0.30 0.32 0.33 0.34 0.34 0.35 0.36 0.36
0.24 0.22 0.21 0.21 0.21 0.19 0.19 0.19 0.17 0.24 0.22 0.22 0.25 0.24 0.26 0.27 0.28 0.29 0.31 0.32 0.33 0.34 0.34 0.34 0.35 0.35 0.36
0.23 0.21 0.21 0.21 0.20 0.20 0.22 0.21 0.20 0.24 0.24 0.20 0.25 0.23 0.26 0.27 0.28 0.29 0.31 0.32 0.32 0.33 0.33 0.33 0.34 0.34 0.35
0.24 0.23 0.23 0.23 0.24 0.25 0.23 0.23 0.24 0.25 0.26 0.20 0.24 0.23 0.25 0.26 0.28 0.29 0.30 0.31 0.32 0.32 0.33 0.33 0.34 0.34 0.35
0.23 0.23 0.23 0.24 0.24 0.24 0.22 0.21 0.20 0.21 0.26 0.24 0.24 0.24 0.25 0.25 0.26 0.28 0.29 0.30 0.30 0.31 0.31 0.32 0.33 0.33 0.34
0.19 0.18 0.21 0.22 0.25 0.26 0.25 0.22 0.22 0.21 0.27 0.26 0.26 0.27 0.23 0.27 0.27 0.28 0.29 0.29 0.29 0.30 0.31 0.32 0.33 0.32 0.32
0.16 0.20 0.22 0.24 0.26 0.28 0.28 0.26 0.24 0.24 0.29 0.30 0.27 0.27 0.27 0.25 0.28 0.29 0.30 0.30 0.31 0.30 0.31 0.32 0.32 0.32 0.30
0.20 0.21 0.23 0.25 0.27 0.28 0.29 0.29 0.29 0.30 0.32 0.33 0.28 0.28 0.27 0.26 0.25 0.29 0.31 0.31 0.32 0.32 0.33 0.34 0.34 0.34 0.34
0.21 0.24 0.25 0.27 0.29 0.29 0.30 0.29 0.30 0.32 0.33 0.33 0.31 0.31 0.30 0.28 0.27 0.29 0.29 0.31 0.33 0.33 0.33 0.33 0.32 0.34 0.32
0.24 0.26 0.27 0.28 0.28 0.29 0.27 0.27 0.27 0.29 0.33 0.33 0.33 0.32 0.30 0.31 0.31 0.29 0.31 0.29 0.32 0.32 0.33 0.33 0.34 0.36 0.36
0.26 0.26 0.27 0.28 0.28 0.29 0.28 0.28 0.27 0.27 0.27 0.30 0.32 0.33 0.34 0.33 0.30 0.31 0.30 0.30 0.31 0.32 0.33 0.32 0.33 0.36 0.37
0.27 0.27 0.28 0.28 0.28 0.29 0.29 0.28 0.27 0.27 0.27 0.28 0.28 0.28 0.30 0.32 0.34 0.31 0.31 0.30 0.32 0.34 0.35 0.32 0.32 0.36 0.39
0.28 0.28 0.29 0.28 0.29 0.28 0.29 0.28 0.27 0.26 0.26 0.27 0.27 0.27 0.25 0.25 0.31 0.36 0.32 0.34 0.34 0.33 0.34 0.34 0.33 0.36 0.38
Wind_Speed
41 42 44 45 46 48 49 50 51 51 52 53 53 54 55 55 56 56 57 57 57 57 57 57 57 56 56
42 44 45 46 47 48 49 50 52 52 53 53 54 55 55 55 56 57 57 57 57 57 57 57 56 56 55
44 45 46 46 48 49 50 51 52 52 52 53 53 53 54 55 55 55 54 53 52 51 50 49 49 50 50
44 45 46 47 48 50 51 51 51 51 51 51 51 52 52 51 49 47 47 46 46 46 46 46 46 46 45
45 45 46 47 48 50 51 51 50 49 49 48 48 47 46 45 45 46 46 46 47 47 47 47 47 46 46
44 45 47 48 49 50 50 49 48 46 46 46 45 44 44 45 45 46 46 47 47 47 48 48 48 48 47
45 47 48 49 49 49 48 47 46 46 45 43 43 44 44 43 42 43 43 43 43 43 43 44 44 44 45
46 47 48 47 47 46 45 44 42 41 41 42 42 40 39 38 39 38 38 38 38 38 38 39 39 39 40
46 46 46 46 44 42 40 38 38 37 39 38 35 36 36 35 33 34 34 34 35 36 36 35 35 36 36
45 45 43 40 38 36 35 34 35 37 34 32 34 35 32 30 31 33 34 34 34 33 33 32 32 30 31
43 39 36 33 31 31 31 32 35 34 35 34 33 33 31 32 31 32 32 32 31 30 30 29 29 29 29
34 31 28 27 27 28 31 33 34 34 34 32 31 31 32 33 33 32 31 31 30 28 26 26 25 25 26
24 23 23 24 26 28 31 32 32 31 31 31 30 31 32 33 34 34 33 30 29 27 26 25 23 22 22
20 21 22 23 26 27 28 30 30 29 29 30 30 32 33 34 34 34 32 29 29 28 27 26 24 22 22
20 21 22 24 25 26 28 30 28 29 30 30 30 32 33 34 33 32 31 30 29 28 26 25 24 24 23
21 21 23 24 25 27 29 29 29 30 31 31 32 33 33 32 32 31 30 28 28 26 26 25 25 24 23
21 22 22 23 25 27 29 29 29 31 32 32 32 32 33 31 31 29 29 29 28 27 26 25 25 25 25
Wind_Direction
294 296 297 298 299 300 300 300 300 300 298 297 295 294 293 291 290 288 287 285 283 281 279 277 276 274 273
294 296 298 299 299 300 301 301 301 301 299 298 297 295 294 292 290 289 288 285 283 281 279 277 275 273 272
295 297 298 300 301 301 302 302 302 301 300 300 298 297 296 294 292 291 289 286 284 282 279 277 275 274 272
295 297 299 301 301 302 302 303 303 303 302 301 300 299 298 296 295 293 290 287 285 282 280 278 276 275 273
296 298 300 301 302 303 303 304 304 304 303 303 302 301 300 299 297 294 292 289 286 283 281 278 276 274 272
298 298 300 301 302 303 304 305 305 305 305 304 303 302 301 300 298 295 293 290 288 285 282 280 276 273 271
298 299 300 302 303 303 304 304 305 306 306 305 304 303 303 301 300 298 296 294 291 288 286 283 280 276 271
298 300 300 302 302 303 304 305 306 307 306 306 308 306 307 305 303 302 301 299 296 292 289 286 281 277 273
299 300 301 302 302 304 305 306 308 309 309 308 312 311 311 309 308 307 305 304 301 298 294 290 285 280 274
300 300 301 302 303 304 305 307 309 313 313 311 314 315 316 313 312 311 310 308 305 301 297 293 288 282 275
300 301 301 302 304 306 308 309 311 310 311 311 314 314 313 315 315 315 313 312 310 307 303 298 291 284 279
300 301 303 305 308 310 312 313 312 310 312 311 311 313 313 314 314 316 314 313 312 310 308 304 298 291 284
302 304 306 308 312 315 316 317 317 315 314 314 312 313 313 313 313 313 313 312 309 308 308 305 302 299 293
308 309 310 313 315 318 320 322 322 321 319 317 316 315 314 313 313 313 312 309 308 305 304 301 298 296 293
314 313 314 316 317 321 322 323 322 323 323 322 321 318 316 315 314 313 313 310 308 307 304 300 296 296 291
316 315 316 317 319 322 324 323 323 323 322 322 322 323 322 320 314 313 314 312 311 309 306 301 299 299 293
317 317 318 318 321 324 325 324 324 324 323 322 322 323 324 322 323 320 317 313 310 309 306 302 300 299 294